FALCON 9 R/B, 62007

Orbit data source: Space-Track

FALCON 9 R/B, 62007 is space debris in HEO originally from a launch on Sun, 17 Nov 2024 UTC launched from the Air Force Eastern Test Range (AFETR). Debris objects in space refer to the collection of defunct objects orbiting the Earth. Examples of debris include non-operational satellites, rocket bodies, and fragments generated from explosions, collisions, or faulty payload assembly.

Loading next visibility...
FALCON 9 R/B details
Identifier
62007, 2024-212B
Orbit
HEO
Last TLE update2 days ago
Origin
Flag of USSpaceX (US)
ManufacturerSpaceX
MissionSpacecraft
Bus & MotorF9ST2, Unknown motor
Mass~4,000 kg wet, ~4,000 kg dry
Launch date (UTC)
2024-11-17 (4 days ago)
Launch vehicleUnknown
Launch site
Air Force Eastern Test Range (AFETR)
Object type
Payload
Rocket body
Debris
Shape & HBRUnknown
Radar Cross SectionRCS unknown

Expand to show TLE details & history

TLE from 2 days ago
0 FALCON 9 R/B
1 62007U 24212B   24324.55564779  .00002249  00000-0  15981-1 0  9991
2 62007  17.7833 221.1756 7828684 179.6885 181.6859  1.56377628    33
Epoch: 2024-11-19T13:20Z
Definitive object data (Epoch: 2024-11-19T13:20:07.969Z)
Latitude0.0002°
Longitude-37.89133°
Altitude49,547.311 km
Speed1.242 km/s
True Right ascension14h 44m 49s
True Declination0° 00' 01"
Sunlit
Object was in daylight at TLE epoch
Visualization TLE readout
Latitude-8.31409°
Longitude-65.32336°
Altitude32,350.73 km
Speed2.805 km/s
Apparent Right ascension13h 11m 22s
Apparent Declination-12° 52' 13"
Sunlit
Object is in daylight
Visualization observer readout
Local Sidereal Time03:26:14
Azimuth57.145° ENE
Elevation-49.895°
Doppler factor1
Orbital elements
Apogee altitude49,529.928 km
Perigee altitude430.783 km
Semi-major axis31,358.492 km
Eccentricity0.7828684
Inclination17.7833°
RAAN221.1756°
Arg. of periapsis179.6885°
True anomaly180.33001°
Mean anomaly181.6859°
Eccentric anomaly180.94563°
Mean motion0.39085 °/min
BSTAR0.015981
Orbital period921.07 mins
Loading maneuver chart data...
Loading historical data...
Loading historical data...
Loading historical data...
Loading historical data...
Loading historical data...
Loading historical data...
Loading historical data...
Other satellites on launch #212 in the year 2024 (2024-11-17 UTC)

FALCON 9 R/B Visibility forecast

Observer location: undefined°, undefined

Span
Click to sort rows by Start time (UTC) header in descending order
Start Az.
Max El. time (UTC)
Max El. Az.
Max El.
End time (UTC)
End Az.
273 mins2024-11-21 13:42:42.660Z99.795° ESE2024-11-21 17:00:42.660Z112.108° ESE26.497°2024-11-21 18:15:42.660Z95.438° ESE
|